Find Starlink 35036

NORAD ID: 65406 Int'l Des: 2025-192 Owner: SPXS Country: US Constellation: starlink operational
LEOCIRCULAR

現在のビュー

3D地球を読み込み中...

Starlink 35036について

説明を読み込み中...

次回通過

Passes for default location (London). Set your location on the main map for personalized predictions.

高度履歴

Loading altitude history...

軌道要素

1 65406U 25192C 26145.24172353 .00013670 00000-0 47265-3 0 9999
2 65406 53.1573 236.8487 0001221 87.4355 272.6786 15.30210377 41106
Epoch: May 25, 2026 • Age: 36 hours

現在のステータス

高度 494.1 km
速度 7.62 km/s
衛星直下点 -52.39°S, 7.85°E
打ち上げ日 Aug 31, 2025
運用期間 0.7 years
タイプ internet

技術仕様

分類 Payload
質量 575.00 kg
乾燥質量 530.00 kg
総質量 575.00 kg
長さ 0.30 m
直径 4.10 m
スパン 29.00 m
形状 Box + pan
製造者 SPXS
バスタイプ Starlink V2MO
フェーズステータス In Orbit
所有者/国 SPXS/US

Most Searched